User: anonymous   Login
Location: Siloam Springs
(36.1881°N, 94.5403°W)
Time: 16:45:24
(UTC-05:00)
Language:

CUBESAT XI-V - Orbit

View from above orbital plane
View from above orbital plane
View from above satellite
View from above satellite

Ground track
Ground track

The orbit data is extracted from the following two-line orbital elements,

1 28895U 05043F   24147.90173988  .00002445  00000-0  43799-3 0  9997
2 28895  98.1990 283.7028 0016758  67.3239 292.9735 14.67633028991339
Epoch (UTC): 26 May 2024 21:38:30
Eccentricity: 0.0016758
inclination: 98.1990°
perigee height: 657 km
apogee height: 680 km
right ascension of ascending node: 283.7028°
argument of perigee: 67.3239°
revolutions per day: 14.67633028
mean anomaly at epoch: 292.9735°
orbit number at epoch: 99133

The dashed part of the orbit path shows where the satellite is in the earth's shadow,  

DLR